GW3550 Weather Reports


Display with metric or nautical units.
time (UTC)temp
F
wind
direction
speed
MPH
gust
MPH
rain 1hr
in
rain 24hr
in
rain mn
in
humidity
%
barometer
mb
20260905022039 82 200 0.0 1.0 0.00 0.00 0.00 76 1018.5
20260905021539 82 204 0.0 0.0 0.00 0.00 0.00 77 1018.5
20260905021034 82 220 0.0 0.0 0.00 0.00 0.00 78 1018.8
20260905020533 82 200 0.0 1.0 0.00 0.00 0.00 77 1018.6
20260905020029 82 200 0.0 0.0 0.00 0.00 0.00 78 1018.6
20260905015527 81 201 0.0 0.0 0.00 0.00 0.00 79 1018.4
20260905015022 81 201 0.0 0.0 0.00 0.00 0.00 82 1018.4
20260905014516 82 201 0.0 0.0 0.00 0.00 0.00 83 1018.4
20260905014011 81 201 0.0 0.0 0.00 0.00 0.00 81 1018.5
20260905013502 81 201 0.0 0.0 0.00 0.00 0.00 81 1018.4
20260905012957 81 201 0.0 0.0 0.00 0.00 0.00 82 1018.5
20260905012452 82 201 0.0 0.0 0.00 0.00 0.00 81 1018.3
20260905011949 83 201 0.0 0.0 0.00 0.00 0.00 80 1018.2
20260905011444 83 201 0.0 0.0 0.00 0.00 0.00 79 1018.1
20260905010940 84 201 0.0 0.0 0.00 0.00 0.00 79 1018.0
20260905010435 84 200 0.0 0.0 0.00 0.00 0.00 77 1018.0
20260905005930 84 200 0.0 0.0 0.00 0.00 0.00 77 1018.1
20260905005427 84 200 0.0 0.0 0.00 0.00 0.00 77 1018.2
20260905004927 84 200 0.0 0.0 0.00 0.00 0.00 76 1018.1
20260905004421 84 200 0.0 0.0 0.00 0.00 0.00 74 1018.2
20260905003917 85 200 0.0 0.0 0.00 0.00 0.00 73 1017.9
20260905003412 85 200 0.0 0.0 0.00 0.00 0.00 73 1017.8
20260905002908 86 199 0.0 1.0 0.00 0.00 0.00 72 1017.8
20260905002402 86 190 0.0 0.0 0.00 0.00 0.00 71 1017.9
20260905001856 86 190 0.0 0.0 0.00 0.00 0.00 71 1018.1
20260905001356 87 190 0.0 0.0 0.00 0.00 0.00 68 1017.9
20260905000851 87 190 0.0 0.0 0.00 0.00 0.00 68 1017.7
20260905000348 87 190 0.0 1.0 0.00 0.00 0.00 66 1017.8
20260904235843 87 187 1.0 1.0 0.00 0.00 0.00 67 1017.7
20260904235338 88 185 0.0 0.0 0.00 0.00 0.00 65 1017.5
20260904234832 88 181 0.0 1.0 0.00 0.00 0.00 66 1017.7
20260904234327 90 179 0.0 0.0 0.00 0.00 0.00 63 1017.5
20260904233823 91 178 0.0 0.0 0.00 0.00 0.00 59 1017.6
20260904233318 92 178 0.0 0.0 0.00 0.00 0.00 57 1017.4
20260904232815 92 178 0.0 0.0 0.00 0.00 0.00 57 1017.3
20260904232311 93 178 0.0 0.0 0.00 0.00 0.00 56 1017.5
20260904231807 93 178 0.0 0.0 0.00 0.00 0.00 59 1017.4
20260904231301 93 177 0.0 1.0 0.00 0.00 0.00 57 1017.3
20260904230756 94 199 0.0 0.0 0.00 0.00 0.00 57 1017.4
20260904230249 94 198 0.0 0.0 0.00 0.00 0.00 57 1017.4
20260904225744 93 169 0.0 0.0 0.00 0.00 0.00 57 1017.3
20260904225238 94 186 0.0 0.0 0.00 0.00 0.00 55 1017.0
20260904224737 94 186 0.0 0.0 0.00 0.00 0.00 56 1017.3
20260904224233 94 14 0.0 0.0 0.00 0.00 0.00 56 1017.0
20260904223732 94 14 0.0 0.0 0.00 0.00 0.00 55 1017.1
20260904223227 94 29 2.0 3.0 0.00 0.00 0.00 53 1017.3
20260904222723 94 230 0.0 2.0 0.00 0.00 0.00 54 1017.3
20260904222218 94 50 1.0 3.0 0.00 0.00 0.00 54 1017.1
20260904221718 96 180 0.0 2.0 0.00 0.00 0.00 54 1017.3
20260904221213 96 181 0.0 0.0 0.00 0.00 0.00 51 1017.3
20260904220713 94 180 0.0 3.0 0.00 0.00 0.00 56 1017.3
20260904220208 95 165 0.0 1.0 0.00 0.00 0.00 52 1017.0
20260904215708 95 218 0.0 1.0 0.00 0.00 0.00 53 1017.1
20260904215204 95 220 1.0 4.0 0.00 0.00 0.00 53 1017.1
20260904214658 93 38 2.0 3.0 0.00 0.00 0.00 54 1017.1
20260904214154 94 155 1.0 1.0 0.00 0.00 0.00 53 1017.4
20260904213652 95 168 0.0 1.0 0.00 0.00 0.00 52 1017.5
20260904213149 94 221 0.0 0.0 0.00 0.00 0.00 54 1017.3
20260904212644 94 50 0.0 1.0 0.00 0.00 0.00 53 1017.3
20260904212144 94 30 2.0 4.0 0.00 0.00 0.00 53 1017.4
20260904211638 94 44 1.0 6.0 0.00 0.00 0.00 52 1017.5
20260904211133 95 48 2.0 2.0 0.00 0.00 0.00 52 1017.5
20260904210628 95 171 2.0 2.0 0.00 0.00 0.00 52 1017.5
20260904210123 94 207 0.0 6.0 0.00 0.00 0.00 54 1017.4
20260904205619 95 35 2.0 4.0 0.00 0.00 0.00 52 1017.5
20260904205114 95 102 0.0 6.0 0.00 0.00 0.00 54 1017.6
20260904204605 95 27 2.0 3.0 0.00 0.00 0.00 52 1017.6
20260904204101 95 125 0.0 2.0 0.00 0.00 0.00 51 1017.7
20260904203556 94 238 0.0 2.0 0.00 0.00 0.00 52 1017.7
20260904203053 94 73 3.0 7.0 0.00 0.00 0.00 53 1017.7
20260904202548 96 27 2.0 3.0 0.00 0.00 0.00 51 1017.7
20260904202044 96 186 0.0 1.0 0.00 0.00 0.00 53 1017.9
20260904201539 96 178 0.0 1.0 0.00 0.00 0.00 53 1017.9
20260904201034 94 91 1.0 4.0 0.00 0.00 0.00 56 1018.1
20260904200533 94 237 0.0 4.0 0.00 0.00 0.00 55 1018.2
20260904200028 95 102 0.0 4.0 0.00 0.00 0.00 56 1018.2
20260904195527 93 155 1.0 3.0 0.00 0.00 0.00 57 1018.3
20260904195026 93 89 1.0 2.0 0.00 0.00 0.00 53 1018.4
20260904194521 94 52 3.0 4.0 0.00 0.00 0.00 53 1018.3
20260904194016 94 188 1.0 3.0 0.00 0.00 0.00 56 1018.5
20260904193516 93 47 2.0 6.0 0.00 0.00 0.00 55 1018.5
20260904193012 93 98 2.0 6.0 0.00 0.00 0.00 55 1018.7
20260904192511 96 185 2.0 3.0 0.00 0.00 0.00 53 1018.7
20260904192008 94 186 1.0 2.0 0.00 0.00 0.00 55 1018.8
20260904191504 93 229 0.0 0.0 0.00 0.00 0.00 60 1019.1
20260904191000 92 231 0.0 1.0 0.00 0.00 0.00 60 1019.2
20260904190455 92 239 1.0 1.0 0.00 0.00 0.00 58 1019.2
20260904185951 94 45 2.0 3.0 0.00 0.00 0.00 56 1019.1
20260904185447 94 277 0.0 1.0 0.00 0.00 0.00 56 1019.4
20260904184942 94 92 2.0 3.0 0.00 0.00 0.00 54 1019.2
20260904184436 95 69 0.0 3.0 0.00 0.00 0.00 53 1019.4
20260904183932 96 188 1.0 2.0 0.00 0.00 0.00 53 1019.4
20260904183427 96 204 0.0 1.0 0.00 0.00 0.00 57 1019.4
20260904182922 95 41 2.0 7.0 0.00 0.00 0.00 54 1019.8
20260904182418 96 216 0.0 3.0 0.00 0.00 0.00 52 1019.7
20260904181913 95 162 0.0 2.0 0.00 0.00 0.00 52 1019.7
20260904181408 95 241 2.0 4.0 0.00 0.00 0.00 54 1019.8
20260904180903 96 80 1.0 2.0 0.00 0.00 0.00 52 1019.7
20260904180358 96 20 0.0 3.0 0.00 0.00 0.00 56 1019.7
20260904175857 96 223 0.0 2.0 0.00 0.00 0.00 57 1019.6
20260904175356 95 199 1.0 1.0 0.00 0.00 0.00 59 1019.7
20260904174850 95 128 1.0 2.0 0.00 0.00 0.00 58 1019.9
20260904174346 94 194 1.0 1.0 0.00 0.00 0.00 59 1019.9
20260904173842 94 199 1.0 3.0 0.00 0.00 0.00 59 1020.1
20260904173338 93 198 0.0 1.0 0.00 0.00 0.00 58 1020.1
20260904172833 92 206 0.0 0.0 0.00 0.00 0.00 62 1020.1
20260904172327 93 197 1.0 2.0 0.00 0.00 0.00 62 1020.3
20260904171822 93 214 1.0 2.0 0.00 0.00 0.00 59 1020.2
20260904171318 93 80 1.0 1.0 0.00 0.00 0.00 61 1020.4
20260904170813 93 225 0.0 1.0 0.00 0.00 0.00 62 1020.3
20260904170309 94 82 1.0 2.0 0.00 0.00 0.00 62 1020.3
20260904165808 94 219 0.0 2.0 0.00 0.00 0.00 62 1020.5
20260904165305 94 321 0.0 1.0 0.00 0.00 0.00 61 1020.8
20260904164756 92 225 0.0 1.0 0.00 0.00 0.00 64 1020.7
20260904164252 91 309 0.0 1.0 0.00 0.00 0.00 64 1020.4
20260904163748 93 21 0.0 3.0 0.00 0.00 0.00 62 1020.5
20260904163243 93 217 0.0 1.0 0.00 0.00 0.00 63 1020.9
20260904162742 92 235 0.0 2.0 0.00 0.00 0.00 63 1020.8
20260904162237 91 231 0.0 1.0 0.00 0.00 0.00 63 1020.9
20260904161733 92 231 0.0 1.0 0.00 0.00 0.00 63 1020.9
20260904161233 91 67 1.0 2.0 0.00 0.00 0.00 62 1021.1
20260904160728 92 200 2.0 4.0 0.00 0.00 0.00 62 1021.1
20260904160224 93 1 0.0 2.0 0.00 0.00 0.00 64 1021.1
20260904155724 92 220 0.0 1.0 0.00 0.00 0.00 65 1021.0
20260904155223 92 217 0.0 1.0 0.00 0.00 0.00 63 1021.3
20260904154721 92 213 0.0 1.0 0.00 0.00 0.00 64 1021.2
20260904154216 90 189 0.0 0.0 0.00 0.00 0.00 65 1021.4
20260904153712 91 25 1.0 2.0 0.00 0.00 0.00 66 1021.3
20260904153207 91 208 0.0 0.0 0.00 0.00 0.00 65 1021.1
20260904152703 92 209 0.0 0.0 0.00 0.00 0.00 65 1021.2
20260904152158 91 219 0.0 0.0 0.00 0.00 0.00 68 1021.1
20260904151654 90 244 0.0 1.0 0.00 0.00 0.00 66 1021.3
20260904151152 89 233 0.0 1.0 0.00 0.00 0.00 69 1021.0
20260904150648 88 222 0.0 1.0 0.00 0.00 0.00 70 1021.1
20260904150143 87 237 0.0 1.0 0.00 0.00 0.00 73 1021.1
20260904145642 87 246 1.0 3.0 0.00 0.00 0.00 71 1021.1
20260904145137 86 220 0.0 2.0 0.00 0.00 0.00 76 1021.1
20260904144632 85 203 0.0 1.0 0.00 0.00 0.00 75 1020.9
20260904144128 86 38 1.0 1.0 0.00 0.00 0.00 73 1021.0
20260904143624 86 242 0.0 2.0 0.00 0.00 0.00 75 1021.1
20260904143120 85 244 0.0 1.0 0.00 0.00 0.00 75 1021.1
20260904142617 86 248 0.0 0.0 0.00 0.00 0.00 76 1021.0
20260904142112 86 237 0.0 0.0 0.00 0.00 0.00 75 1021.1
20260904141607 84 248 0.0 1.0 0.00 0.00 0.00 79 1020.8
20260904141102 84 231 0.0 2.0 0.00 0.00 0.00 79 1021.0
20260904140557 84 237 0.0 2.0 0.00 0.00 0.00 79 1020.7
20260904140051 84 267 0.0 1.0 0.00 0.00 0.00 78 1021.0
20260904135550 84 267 0.0 0.0 0.00 0.00 0.00 78 1021.1
20260904135047 84 3 0.0 0.0 0.00 0.00 0.00 77 1021.1
20260904134542 83 4 0.0 1.0 0.00 0.00 0.00 80 1021.1
20260904134031 82 22 0.0 0.0 0.00 0.00 0.00 79 1021.0
20260904133525 83 47 0.0 2.0 0.00 0.00 0.00 80 1021.0
20260904133021 83 172 0.0 0.0 0.00 0.00 0.00 82 1021.2
20260904132516 82 153 0.0 0.0 0.00 0.00 0.00 82 1021.1
20260904132015 82 132 0.0 0.0 0.00 0.00 0.00 83 1020.9
20260904131510 82 108 0.0 0.0 0.00 0.00 0.00 83 1021.0
20260904131006 82 107 0.0 0.0 0.00 0.00 0.00 87 1021.1
20260904130505 82 107 0.0 0.0 0.00 0.00 0.00 84 1021.3
20260904130000 80 107 0.0 0.0 0.00 0.00 0.00 87 1021.1
20260904125456 80 107 0.0 0.0 0.00 0.00 0.00 88 1020.9
20260904124956 79 158 0.0 0.0 0.00 0.00 0.00 88 1021.1
20260904124452 78 158 0.0 0.0 0.00 0.00 0.00 89 1021.1
20260904123948 78 128 0.0 0.0 0.00 0.00 0.00 91 1021.4
20260904123442 78 158 0.0 1.0 0.00 0.00 0.00 90 1021.1
20260904122938 78 158 0.0 0.0 0.00 0.00 0.00 90 1021.4
20260904122437 78 158 0.0 0.0 0.00 0.00 0.00 90 1021.2
20260904121932 78 158 0.0 0.0 0.00 0.00 0.00 90 1021.1
20260904121428 76 157 0.0 0.0 0.00 0.00 0.00 94 1021.1
20260904120925 76 158 0.0 0.0 0.00 0.00 0.00 95 1021.2
20260904120420 75 158 0.0 0.0 0.00 0.00 0.00 98 1021.1
20260904115915 74 158 0.0 0.0 0.00 0.00 0.00 98 1021.0
20260904115410 74 158 0.0 0.0 0.00 0.00 0.00 99 1021.0
20260904114904 73 158 0.0 0.0 0.00 0.00 0.00 99 1020.9
20260904114359 73 158 0.0 0.0 0.00 0.00 0.00 99 1020.8
20260904113855 73 154 0.0 0.0 0.00 0.00 0.00 99 1021.0
20260904113354 72 153 0.0 0.0 0.00 0.00 0.00 99 1020.8
20260904112848 72 153 0.0 0.0 0.00 0.00 0.00 99 1020.7
20260904110207 72 153 0.0 0.0 0.00 0.00 0.00 99 1020.2
20260904105702 72 153 0.0 0.0 0.00 0.00 0.00 99 1020.2
20260904105157 72 153 0.0 0.0 0.00 0.00 0.00 99 1020.4
20260904104652 71 153 0.0 0.0 0.00 0.00 0.00 99 1020.3
20260904104148 71 153 0.0 0.0 0.00 0.00 0.00 99 1020.3
20260904103644 72 153 0.0 0.0 0.00 0.00 0.00 99 1020.2
20260904103139 72 153 0.0 0.0 0.00 0.00 0.00 99 1020.3
20260904102636 72 153 0.0 0.0 0.00 0.00 0.00 99 1020.4
20260904102130 72 153 0.0 0.0 0.00 0.00 0.00 99 1020.1
20260904101627 72 153 0.0 0.0 0.00 0.00 0.00 99 1020.0
20260904101122 72 153 0.0 0.0 0.00 0.00 0.00 99 1020.2
20260904100618 72 153 0.0 0.0 0.00 0.00 0.00 99 1020.1
20260904100113 72 153 0.0 0.0 0.00 0.00 0.00 99 1020.0
20260904095608 72 153 0.0 0.0 0.00 0.00 0.00 99 1020.1
20260904095103 72 153 0.0 0.0 0.00 0.00 0.00 99 1019.9
20260904094603 72 153 0.0 0.0 0.00 0.00 0.00 99 1019.9
20260904094057 73 153 0.0 0.0 0.00 0.00 0.00 99 1019.8
20260904093554 72 162 0.0 0.0 0.00 0.00 0.00 99 1019.8
20260904093049 72 162 0.0 0.0 0.00 0.00 0.00 99 1019.7
20260904092545 72 162 0.0 0.0 0.00 0.00 0.00 99 1019.7
20260904092041 72 162 0.0 0.0 0.00 0.00 0.00 99 1019.7
20260904091537 72 162 0.0 0.0 0.00 0.00 0.00 99 1019.9
20260904091036 73 162 0.0 0.0 0.00 0.00 0.00 99 1019.8
20260904090532 73 162 0.0 0.0 0.00 0.00 0.00 99 1019.7
20260904090028 73 162 0.0 0.0 0.00 0.00 0.00 99 1019.7
20260904085523 73 162 0.0 0.0 0.00 0.00 0.00 99 1019.6
20260904085022 73 162 0.0 0.0 0.00 0.00 0.00 99 1019.6
20260904084518 73 162 0.0 0.0 0.00 0.00 0.00 99 1019.6
20260904084015 73 162 0.0 0.0 0.00 0.00 0.00 99 1019.8
20260904083510 73 162 0.0 0.0 0.00 0.00 0.00 99 1019.7
20260904083006 73 162 0.0 0.0 0.00 0.00 0.00 99 1019.6
20260904082500 73 162 0.0 0.0 0.00 0.00 0.00 99 1019.5
20260904081955 73 162 0.0 0.0 0.00 0.00 0.00 99 1019.6
20260904081451 73 162 0.0 0.0 0.00 0.00 0.00 99 1019.4
20260904080946 74 162 0.0 0.0 0.00 0.00 0.00 99 1019.7
20260904080442 74 162 0.0 0.0 0.00 0.00 0.00 99 1019.5
20260904075937 74 162 0.0 0.0 0.00 0.00 0.00 99 1019.4
20260904075433 74 162 0.0 0.0 0.00 0.00 0.00 99 1019.6
20260904074932 74 162 0.0 0.0 0.00 0.00 0.00 99 1019.6
20260904074427 74 162 0.0 0.0 0.00 0.00 0.00 99 1019.6
20260904073922 74 162 0.0 0.0 0.00 0.00 0.00 99 1019.6
20260904073418 74 162 0.0 0.0 0.00 0.00 0.00 99 1019.7
20260904072914 74 162 0.0 0.0 0.00 0.00 0.00 99 1019.5
20260904072409 74 162 0.0 0.0 0.00 0.00 0.00 99 1019.4
20260904071904 74 162 0.0 0.0 0.00 0.00 0.00 99 1019.2
20260904071359 74 162 0.0 0.0 0.00 0.00 0.00 99 1019.5
20260904070854 74 162 0.0 0.0 0.00 0.00 0.00 99 1019.6
20260904070352 74 162 0.0 0.0 0.00 0.00 0.00 99 1019.5
20260904065847 74 162 0.0 0.0 0.00 0.00 0.00 99 1019.6
20260904065344 74 162 0.0 0.0 0.00 0.00 0.00 99 1019.7
20260904064838 74 162 0.0 0.0 0.00 0.00 0.00 99 1019.5
20260904064334 75 162 0.0 0.0 0.00 0.00 0.00 99 1019.5
20260904063830 75 162 0.0 0.0 0.00 0.00 0.00 99 1019.6
20260904063326 75 162 0.0 0.0 0.00 0.00 0.00 99 1019.7
20260904062821 75 162 0.0 0.0 0.00 0.00 0.00 99 1019.6
20260904062317 75 162 0.0 0.0 0.00 0.00 0.00 99 1019.5
20260904061812 75 162 0.0 0.0 0.00 0.00 0.00 99 1019.7
20260904061308 75 162 0.0 0.0 0.00 0.00 0.00 99 1019.7
20260904060805 75 162 0.0 0.0 0.00 0.00 0.00 99 1019.7
20260904060301 75 162 0.0 0.0 0.00 0.00 0.00 99 1019.9
20260904055756 75 162 0.0 0.0 0.00 0.00 0.00 99 1019.9
20260904055255 75 162 0.0 0.0 0.00 0.00 0.00 99 1019.9
20260904054751 75 162 0.0 0.0 0.00 0.00 0.00 99 1019.9
20260904054247 75 162 0.0 0.0 0.00 0.00 0.00 99 1020.0
20260904053742 75 162 0.0 0.0 0.00 0.00 0.00 99 1020.0
20260904053242 75 162 0.0 0.0 0.00 0.00 0.00 99 1020.1
20260904052738 76 162 0.0 0.0 0.00 0.00 0.00 99 1020.1
20260904052234 76 162 0.0 0.0 0.00 0.00 0.00 99 1020.1
20260904051731 76 162 0.0 0.0 0.00 0.00 0.00 99 1019.8
20260904051230 76 162 0.0 0.0 0.00 0.00 0.00 99 1020.2
20260904050725 76 162 0.0 0.0 0.00 0.00 0.00 99 1020.2
20260904050222 76 162 0.0 0.0 0.00 0.00 0.00 99 1020.2
20260904045717 76 162 0.0 0.0 0.00 0.00 0.00 99 1020.3
20260904045212 76 162 0.0 0.0 0.00 0.00 0.00 98 1020.1
20260904044707 76 162 0.0 0.0 0.00 0.00 0.00 98 1020.1
20260904044203 76 162 0.0 0.0 0.00 0.00 0.00 98 1020.3
20260904043700 76 162 0.0 0.0 0.00 0.00 0.00 97 1020.0
20260904043155 76 162 0.0 0.0 0.00 0.00 0.00 97 1020.2
20260904042651 77 162 0.0 0.0 0.00 0.00 0.00 97 1020.2
20260904042147 77 162 0.0 0.0 0.00 0.00 0.00 97 1020.2
20260904041641 77 162 0.0 0.0 0.00 0.00 0.00 97 1020.1
20260904041138 77 162 0.0 0.0 0.00 0.00 0.00 97 1020.2
20260904040634 77 162 0.0 0.0 0.00 0.00 0.00 97 1020.1
20260904040129 77 162 0.0 0.0 0.00 0.00 0.00 98 1020.3
20260904035625 77 162 0.0 0.0 0.00 0.05 0.05 97 1020.2
20260904035124 77 162 0.0 0.0 0.00 0.05 0.05 97 1020.3
20260904034618 77 162 0.0 0.0 0.00 0.05 0.05 97 1020.3
20260904034114 77 162 0.0 0.0 0.00 0.05 0.05 97 1020.2
20260904033610 77 162 0.0 0.0 0.00 0.05 0.05 96 1020.3
20260904033107 77 162 0.0 0.0 0.00 0.05 0.05 97 1020.3
20260904032602 77 162 0.0 0.0 0.00 0.05 0.05 97 1020.3
20260904032101 77 162 0.0 0.0 0.00 0.05 0.05 97 1020.1
20260904031601 78 159 0.0 0.0 0.00 0.05 0.05 96 1020.1
20260904031057 78 159 0.0 0.0 0.00 0.05 0.05 96 1020.3
20260904030552 78 159 0.0 0.0 0.00 0.05 0.05 96 1020.2
20260904030048 78 159 0.0 0.0 0.00 0.05 0.05 96 1020.3
20260904025543 78 159 0.0 0.0 0.00 0.05 0.05 96 1020.4
20260904025038 78 159 0.0 0.0 0.00 0.05 0.05 96 1020.3
20260904024533 78 159 0.0 0.0 0.00 0.05 0.05 96 1020.1
20260904024029 78 159 0.0 0.0 0.00 0.05 0.05 96 1020.0
20260904023525 78 159 0.0 0.0 0.00 0.05 0.05 95 1020.3
20260904023020 78 159 0.0 0.0 0.00 0.05 0.05 95 1020.1
20260904022515 78 158 0.0 0.0 0.00 0.05 0.05 95 1020.3